Location: Gniazdowice
(50.2124°N, 20.2673°E)
Time: 14:35:14
(UTC+00:00)

Envisat - Pass Details

Date: 23 May 2024
Orbit: 762 x 764 km, 98.3° (Epoch: 11 June)

Event Time Altitude Azimuth Distance (km) Brightness Sun altitude
Rises 01:30:37 0° 19° (NNE) 3,240 7.7 -9.3°
Reaches altitude 10° 01:33:03 10° 26° (NNE) 2,309 6.9 -9.1°
Maximum altitude 01:37:53 42° 98° (E) 1,079 4.1 -8.5°
Drops below altitude 10° 01:42:40 10° 169° (S) 2,292 5.1 -8.0°
Sets 01:45:04 0° 176° (S) 3,213 5.8 -7.7°
